TimeMST,TemperatureF,Dew PointF,Humidity,Sea Level PressureIn,VisibilityMPH,Wind Direction,Wind SpeedMPH,Gust SpeedMPH,PrecipitationIn,Events,Conditions,WindDirDegrees,DateUTC
12:53 AM,39.0,21.0,49,29.77,10.0,WNW,12.7,-,N/A,,Clear,300,2012-12-01 07:53:00
1:53 AM,41.0,21.9,47,29.78,10.0,NNW,8.1,-,N/A,,Partly Cloudy,330,2012-12-01 08:53:00
3:53 AM,41.0,23.0,49,29.81,10.0,NW,5.8,-,N/A,,Scattered Clouds,320,2012-12-01 10:53:00
5:53 AM,50.0,26.1,39,29.83,10.0,WNW,13.8,-,N/A,,Scattered Clouds,300,2012-12-01 12:53:00
6:53 AM,48.0,30.0,50,29.88,10.0,West,9.2,-,N/A,,Clear,280,2012-12-01 13:53:00
7:53 AM,54.0,30.0,40,29.87,10.0,WNW,15.0,-,N/A,,Clear,290,2012-12-01 14:53:00
9:53 AM,63.0,28.9,28,29.84,10.0,NW,16.1,25.3,N/A,,Clear,320,2012-12-01 16:53:00
11:53 AM,66.9,28.0,23,29.83,10.0,WNW,24.2,33.4,N/A,,Clear,290,2012-12-01 18:53:00
12:53 PM,68.0,27.0,21,29.82,10.0,WNW,26.5,33.4,N/A,,Clear,290,2012-12-01 19:53:00
1:53 PM,66.9,26.1,21,29.82,10.0,NW,23.0,33.4,N/A,,Clear,310,2012-12-01 20:53:00
2:53 PM,61.0,27.0,27,29.85,10.0,WNW,11.5,-,N/A,,Clear,300,2012-12-01 21:53:00
3:53 PM,60.1,27.0,28,29.86,10.0,NW,15.0,23.0,N/A,,Clear,320,2012-12-01 22:53:00
4:53 PM,55.9,28.0,34,29.90,10.0,NW,11.5,-,N/A,,Clear,320,2012-12-01 23:53:00
5:53 PM,48.9,27.0,43,29.91,10.0,NW,11.5,-,N/A,,Clear,310,2012-12-02 00:53:00
6:53 PM,48.0,28.0,46,29.93,10.0,WNW,12.7,-,N/A,,Clear,290,2012-12-02 01:53:00
7:53 PM,39.0,26.1,60,29.96,10.0,Variable,4.6,-,N/A,,Clear,0,2012-12-02 02:53:00
8:53 PM,37.9,26.1,62,29.94,10.0,WNW,6.9,-,N/A,,Clear,290,2012-12-02 03:53:00
9:53 PM,37.9,26.1,62,29.94,10.0,SW,11.5,-,N/A,,Clear,230,2012-12-02 04:53:00
10:53 PM,32.0,23.0,69,29.95,10.0,SW,9.2,-,N/A,,Clear,230,2012-12-02 05:53:00
11:53 PM,37.9,24.1,57,29.93,10.0,SW,5.8,-,N/A,,Clear,230,2012-12-02 06:53:00